Tracking 19903 objects as of 16-Oct-2019
HD Live streaming from Space Station
objects crossing your sky now

COSMOS 1275 DEB

Track COSMOS 1275 DEB now!
10-day predictions


NORAD ID: 42100
Int'l Code: 1981-053PL
Perigee: 811.4 km
Apogee: 849.2 km
Inclination: 82.9 °
Period: 101.4 minutes
Semi major axis: 7201 km
RCS: Unknown
Launch date: June 4, 1981
Source: Commonwealth of Independent States (former USSR) (CIS)
Launch site: PLESETSK MISSILE AND SPACE COMPLEX (PKMTR)

Note: This is SATELLITE DEBRIS
aabbcc
Your satellite tracking list
Your tracking list is empty




NASA's NSSDC Master Catalog

Two Line Element Set (TLE):
1 42100U 81053PL  19288.67226037  .00000715  00000-0  32349-3 0  9992
2 42100  82.8686  63.8333 0026219 319.6399  40.2836 14.20653168305268
Source of the keplerian elements: AFSPC